KD7TTL Weather Reports


Display with metric or nautical units.
time (UTC)temp
F
wind
direction
speed
MPH
gust
MPH
rain 1hr
in
rain 24hr
in
rain mn
in
humidity
%
barometer
mb
20260509092003 50 137 0.0 1.0 0.00 0.00 0.00 88 1024.5
20260509091512 50 137 0.0 1.0 0.00 0.00 0.00 87 1024.5
20260509091003 50 119 0.0 1.0 0.00 0.00 0.00 87 1024.5
20260509090503 50 93 0.0 1.0 0.00 0.00 0.00 87 1024.5
20260509090011 50 93 0.0 0.0 0.00 0.00 0.00 86 1024.5
20260509085502 50 51 0.0 1.0 0.00 0.00 0.00 85 1024.5
20260509085002 50 93 0.0 1.0 0.00 0.00 0.00 85 1024.5
20260509084515 50 51 0.0 1.0 0.00 0.00 0.00 85 1024.6
20260509084005 50 93 0.0 1.0 0.00 0.00 0.00 86 1024.6
20260509083503 50 61 0.0 1.0 0.00 0.00 0.00 86 1024.6
20260509083027 50 51 0.0 1.0 0.00 0.00 0.00 86 1024.5
20260509082502 50 120 0.0 1.0 0.00 0.00 0.00 85 1024.5
20260509082002 50 93 0.0 1.0 0.00 0.00 0.00 85 1024.4
20260509081511 50 93 0.0 1.0 0.00 0.00 0.00 85 1024.5
20260509081004 51 93 0.0 1.0 0.00 0.00 0.00 85 1024.5
20260509080507 51 68 0.0 1.0 0.00 0.00 0.00 84 1024.4
20260509080009 51 51 0.0 1.0 0.00 0.00 0.00 84 1024.5
20260509075503 51 68 0.0 1.0 0.00 0.00 0.00 84 1024.4
20260509075003 51 68 0.0 1.0 0.00 0.00 0.00 83 1024.4
20260509074511 51 51 0.0 1.0 0.00 0.00 0.00 83 1024.3
20260509074002 51 137 0.0 1.0 0.00 0.00 0.00 82 1024.2
20260509073503 52 265 0.0 1.0 0.00 0.00 0.00 82 1024.2
20260509073020 52 93 0.0 1.0 0.00 0.00 0.00 82 1024.2
20260509072510 52 178 0.0 1.0 0.00 0.00 0.00 82 1024.1
20260509072011 52 51 0.0 1.0 0.00 0.00 0.00 82 1024.0
20260509071537 52 51 0.0 1.0 0.00 0.00 0.00 82 1024.0
20260509071008 52 51 0.0 1.0 0.00 0.00 0.00 83 1024.0
20260509070512 52 68 0.0 1.0 0.00 0.00 0.00 82 1024.0
20260509070030 53 93 0.0 1.0 0.00 0.00 0.00 82 1024.0
20260509065511 53 93 0.0 1.0 0.00 0.00 0.00 81 1024.0
20260509065012 53 9 0.0 1.0 0.00 0.00 0.00 81 1024.0
20260509064529 53 51 0.0 1.0 0.00 0.00 0.00 81 1023.9
20260509064010 53 51 0.0 1.0 0.00 0.00 0.00 80 1023.9
20260509063516 53 93 0.0 1.0 0.00 0.00 0.00 80 1023.9
20260509063032 53 51 0.0 1.0 0.00 0.00 0.00 81 1024.0
20260509062511 53 93 0.0 1.0 0.00 0.00 0.00 81 1023.9
20260509062014 53 93 0.0 1.0 0.00 0.00 0.00 81 1023.8
20260509061528 53 93 0.0 1.0 0.00 0.00 0.00 80 1023.8
20260509061014 53 93 0.0 1.0 0.00 0.00 0.00 81 1023.8
20260509060510 53 93 0.0 1.0 0.00 0.00 0.00 81 1023.8
20260509060028 53 26 0.0 1.0 0.00 0.00 0.00 80 1023.8
20260509055511 53 9 0.0 1.0 0.00 0.00 0.00 80 1023.7
20260509055009 53 68 0.0 1.0 0.00 0.00 0.00 80 1023.8
20260509054531 53 51 0.0 1.0 0.00 0.00 0.00 80 1023.7
20260509054009 53 153 0.0 1.0 0.00 0.00 0.00 80 1023.7
20260509053511 53 265 0.0 1.0 0.00 0.00 0.00 81 1023.6
20260509053039 54 51 0.0 1.0 0.00 0.00 0.00 79 1023.5
20260509052510 54 51 0.0 1.0 0.00 0.00 0.00 80 1023.5
20260509052012 54 34 0.0 1.0 0.00 0.00 0.00 80 1023.4
20260509051535 54 34 0.0 1.0 0.00 0.00 0.00 80 1023.5
20260509051011 54 51 0.0 1.0 0.00 0.00 0.00 79 1023.5
20260509050511 54 68 0.0 1.0 0.00 0.00 0.00 79 1023.5
20260509050030 54 93 0.0 1.0 0.00 0.00 0.00 79 1023.6
20260509045519 54 68 0.0 1.0 0.00 0.00 0.00 78 1023.6
20260509045012 54 68 0.0 1.0 0.00 0.00 0.00 78 1023.5
20260509044530 54 68 0.0 1.0 0.00 0.00 0.00 78 1023.6
20260509044011 55 51 0.0 1.0 0.00 0.00 0.00 77 1023.5
20260509043510 55 9 0.0 1.0 0.00 0.00 0.00 77 1023.5
20260509043030 55 93 0.0 1.0 0.00 0.00 0.00 76 1023.4
20260509042508 55 68 0.0 1.0 0.00 0.00 0.00 76 1023.5
20260509042018 55 93 0.0 1.0 0.00 0.00 0.00 75 1023.4
20260509041529 55 93 0.0 1.0 0.00 0.00 0.00 75 1023.3
20260509041013 55 51 0.0 1.0 0.00 0.00 0.00 74 1023.4
20260509040511 56 51 0.0 1.0 0.00 0.00 0.00 74 1023.3
20260509040031 56 51 0.0 1.0 0.00 0.00 0.00 74 1023.2
20260509035511 56 51 0.0 1.0 0.00 0.00 0.00 74 1023.2
20260509035012 56 68 0.0 1.0 0.00 0.00 0.00 73 1023.2
20260509034537 56 93 0.0 1.0 0.00 0.00 0.00 73 1023.1
20260509034010 57 51 0.0 1.0 0.00 0.00 0.00 73 1023.0
20260509033512 57 51 0.0 1.0 0.00 0.00 0.00 72 1023.1
20260509033030 57 51 0.0 1.0 0.00 0.00 0.00 71 1023.1
20260509032509 57 51 0.0 1.0 0.00 0.00 0.00 72 1023.1
20260509032009 57 93 0.0 1.0 0.00 0.00 0.00 72 1023.0
20260509031547 57 76 0.0 1.0 0.00 0.00 0.00 72 1023.1
20260509031012 57 51 0.0 1.0 0.00 0.00 0.00 72 1023.1
20260509030515 58 51 0.0 1.0 0.00 0.00 0.00 71 1023.0
20260509030054 58 51 0.0 1.0 0.00 0.00 0.00 71 1023.0
20260509025512 58 51 0.0 1.0 0.00 0.00 0.00 71 1023.0
20260509025010 58 9 0.0 1.0 0.00 0.00 0.00 71 1023.0
20260509024535 58 51 0.0 2.0 0.00 0.00 0.00 69 1023.0
20260509024010 58 34 0.0 2.0 0.00 0.00 0.00 69 1023.0
20260509023511 58 34 0.0 2.0 0.00 0.00 0.00 69 1022.9
20260509023034 58 76 0.0 1.0 0.00 0.00 0.00 69 1022.9
20260509022510 58 68 0.0 1.0 0.00 0.00 0.00 67 1022.9
20260509022013 59 309 0.0 2.0 0.00 0.00 0.00 67 1022.9
20260509021536 59 325 0.0 2.0 0.00 0.00 0.00 67 1022.9
20260509021010 59 93 0.0 3.0 0.00 0.00 0.00 67 1022.8
20260509020508 59 215 1.0 3.0 0.00 0.00 0.00 64 1022.8
20260509020027 59 51 0.0 1.0 0.00 0.00 0.00 64 1022.8
20260509015511 59 76 0.0 2.0 0.00 0.00 0.00 67 1022.8
20260509015011 59 178 0.0 2.0 0.00 0.00 0.00 65 1022.8
20260509014530 59 153 0.0 2.0 0.00 0.00 0.00 64 1022.8
20260509014015 59 115 1.0 2.0 0.00 0.00 0.00 60 1022.9
20260509013513 59 178 0.0 4.0 0.00 0.00 0.00 65 1022.9
20260509013027 59 153 0.0 4.0 0.00 0.00 0.00 60 1023.0
20260509012512 59 178 1.0 2.0 0.00 0.00 0.00 64 1023.0
20260509012019 59 137 0.0 3.0 0.00 0.00 0.00 63 1022.9
20260509011506 59 178 1.0 3.0 0.00 0.00 0.00 63 1022.9
20260509011004 59 265 0.0 5.0 0.00 0.00 0.00 61 1022.9
20260509010503 59 153 1.0 5.0 0.00 0.00 0.00 60 1022.9
20260509010008 59 72 1.0 3.0 0.00 0.00 0.00 61 1022.9
20260509005504 59 178 0.0 3.0 0.00 0.00 0.00 63 1023.0
20260509005003 59 51 0.0 6.0 0.00 0.00 0.00 65 1023.0
20260509004507 59 178 0.0 6.0 0.00 0.00 0.00 64 1022.9
20260509004003 59 142 3.0 5.0 0.00 0.00 0.00 59 1022.9
20260509003504 59 153 0.0 6.0 0.00 0.00 0.00 63 1022.9
20260509003011 59 146 0.0 6.0 0.00 0.00 0.00 61 1022.9
20260509002503 58 120 0.0 4.0 0.00 0.00 0.00 63 1022.9
20260509002003 58 123 0.0 4.0 0.00 0.00 0.00 64 1022.9
20260509001512 58 93 0.0 6.0 0.00 0.00 0.00 65 1022.9
20260509001004 58 76 0.0 8.0 0.00 0.00 0.00 65 1022.9
20260509000503 58 196 2.0 8.0 0.00 0.00 0.00 62 1022.9
20260509000007 58 134 2.0 7.0 0.00 0.00 0.00 63 1022.8
20260508235505 58 165 1.0 7.0 0.00 0.00 0.00 62 1022.8
20260508235006 59 173 3.0 6.0 0.00 0.00 0.00 62 1022.8
20260508234512 59 153 1.0 4.0 0.00 0.00 0.00 63 1022.9
20260508234011 59 128 1.0 6.0 0.00 0.00 0.00 62 1022.9
20260508233504 58 201 0.0 6.0 0.00 0.00 0.00 63 1022.9
20260508233009 58 120 1.0 6.0 0.00 0.00 0.00 59 1022.8
20260508232504 58 265 2.0 11.0 0.00 0.00 0.00 59 1022.7
20260508232003 59 139 5.0 11.0 0.00 0.00 0.00 60 1022.8
20260508231510 58 126 2.0 7.0 0.00 0.00 0.00 60 1022.8
20260508231004 58 132 2.0 11.0 0.00 0.00 0.00 62 1022.7
20260508230503 58 137 5.0 12.0 0.00 0.00 0.00 62 1022.8
20260508230009 59 193 4.0 12.0 0.00 0.00 0.00 58 1022.7
20260508225504 59 139 4.0 10.0 0.00 0.00 0.00 59 1022.7
20260508225004 59 139 4.0 9.0 0.00 0.00 0.00 58 1022.7
20260508224507 58 162 1.0 12.0 0.00 0.00 0.00 61 1022.8
20260508224003 58 178 3.0 12.0 0.00 0.00 0.00 61 1022.8
20260508223504 59 153 2.0 8.0 0.00 0.00 0.00 61 1022.7
20260508223027 59 137 2.0 7.0 0.00 0.00 0.00 64 1022.7
20260508222502 59 142 2.0 6.0 0.00 0.00 0.00 61 1022.8
20260508222003 59 171 1.0 13.0 0.00 0.00 0.00 64 1022.7
20260508221508 59 123 1.0 13.0 0.00 0.00 0.00 63 1022.8
20260508221003 59 205 1.0 14.0 0.00 0.00 0.00 63 1022.9
20260508220503 59 157 2.0 14.0 0.00 0.00 0.00 63 1022.7
20260508220013 59 167 2.0 9.0 0.00 0.00 0.00 59 1022.8
20260508215502 59 167 2.0 9.0 0.00 0.00 0.00 63 1022.8
20260508215004 58 162 2.0 9.0 0.00 0.00 0.00 65 1022.7
20260508214508 58 142 1.0 11.0 0.00 0.00 0.00 66 1022.7
20260508214003 57 93 3.0 11.0 0.00 0.00 0.00 62 1022.8
20260508213503 57 150 2.0 10.0 0.00 0.00 0.00 66 1022.9
20260508213019 57 151 4.0 11.0 0.00 0.00 0.00 63 1022.7
20260508212505 57 205 3.0 11.0 0.00 0.00 0.00 65 1022.8
20260508212003 57 196 1.0 9.0 0.00 0.00 0.00 65 1022.7
20260508211507 57 178 3.0 11.0 0.00 0.00 0.00 66 1022.7
20260508211003 57 137 5.0 11.0 0.00 0.00 0.00 63 1022.7
20260508210503 57 68 0.0 11.0 0.00 0.00 0.00 67 1022.7
20260508210010 57 139 4.0 11.0 0.00 0.00 0.00 65 1022.5
20260508205502 57 205 3.0 14.0 0.00 0.00 0.00 67 1022.5
20260508205004 57 131 6.0 14.0 0.00 0.00 0.00 62 1022.5
20260508204510 57 163 7.0 13.0 0.00 0.00 0.00 62 1022.4
20260508204005 57 193 6.0 13.0 0.00 0.00 0.00 64 1022.5
20260508203503 58 171 2.0 8.0 0.00 0.00 0.00 65 1022.5
20260508203010 58 9 2.0 10.0 0.00 0.00 0.00 63 1022.5
20260508202503 58 195 4.0 10.0 0.00 0.00 0.00 66 1022.4
20260508202003 58 265 1.0 11.0 0.00 0.00 0.00 67 1022.4
20260508201514 57 51 1.0 11.0 0.00 0.00 0.00 70 1022.4
20260508201002 57 151 4.0 11.0 0.00 0.00 0.00 68 1022.4
20260508200502 56 173 5.0 11.0 0.00 0.00 0.00 69 1022.4
20260508200012 56 121 2.0 10.0 0.00 0.00 0.00 70 1022.3
20260508195506 56 126 3.0 14.0 0.00 0.00 0.00 68 1022.3
20260508195003 56 150 2.0 14.0 0.00 0.00 0.00 68 1022.2
20260508194508 56 173 5.0 14.0 0.00 0.00 0.00 67 1022.3
20260508194004 56 133 7.0 14.0 0.00 0.00 0.00 67 1022.2
20260508193504 57 88 2.0 5.0 0.00 0.00 0.00 68 1022.1
20260508193011 56 153 1.0 8.0 0.00 0.00 0.00 68 1022.1
20260508192503 56 51 3.0 8.0 0.00 0.00 0.00 67 1022.1
20260508192013 57 169 3.0 10.0 0.00 0.00 0.00 66 1022.1
20260508191537 57 160 3.0 10.0 0.00 0.00 0.00 71 1022.0
20260508191010 57 150 3.0 10.0 0.00 0.00 0.00 69 1022.1
20260508190511 56 120 3.0 10.0 0.00 0.00 0.00 76 1022.1
20260508190027 55 196 2.0 7.0 0.00 0.00 0.00 73 1021.9
20260508185509 54 205 1.0 7.0 0.00 0.00 0.00 74 1022.0
20260508185012 54 144 2.0 7.0 0.00 0.00 0.00 74 1022.0
20260508184528 54 139 2.0 7.0 0.00 0.00 0.00 74 1021.9
20260508184009 54 153 2.0 6.0 0.00 0.00 0.00 75 1021.9
20260508183517 54 146 1.0 7.0 0.00 0.00 0.00 78 1021.9
20260508183032 53 146 2.0 7.0 0.00 0.00 0.00 76 1021.9
20260508182510 53 178 1.0 8.0 0.00 0.00 0.00 76 1021.8
20260508182015 53 149 1.0 10.0 0.00 0.00 0.00 76 1021.8
20260508181531 53 167 4.0 12.0 0.00 0.00 0.00 74 1021.7
20260508181011 53 142 4.0 12.0 0.00 0.00 0.00 74 1021.7
20260508180515 54 153 1.0 6.0 0.00 0.00 0.00 76 1021.6
20260508180031 54 132 2.0 8.0 0.00 0.00 0.00 77 1021.5
20260508175510 53 9 2.0 8.0 0.00 0.00 0.00 77 1021.5
20260508175012 53 51 2.0 10.0 0.00 0.00 0.00 77 1021.4
20260508174533 53 144 4.0 10.0 0.00 0.00 0.00 78 1021.3
20260508174011 53 137 2.0 8.0 0.00 0.00 0.00 78 1021.3
20260508173511 53 200 2.0 8.0 0.00 0.00 0.00 82 1021.1
20260508173027 52 178 4.0 12.0 0.00 0.00 0.00 81 1021.0
20260508172514 52 169 3.0 12.0 0.00 0.00 0.00 81 1021.0
20260508172012 52 201 3.0 7.0 0.00 0.00 0.00 83 1020.9
20260508171529 51 158 1.0 6.0 0.00 0.00 0.00 85 1020.9
20260508171010 51 153 1.0 6.0 0.00 0.00 0.00 84 1020.9
20260508170509 51 171 2.0 7.0 0.00 0.00 0.00 83 1020.8
20260508170027 51 162 2.0 7.0 0.00 0.00 0.00 83 1020.7
20260508165510 51 160 1.0 6.0 0.00 0.00 0.00 84 1020.7
20260508165016 51 170 3.0 7.0 0.00 0.00 0.00 84 1020.7
20260508164530 51 193 2.0 7.0 0.00 0.00 0.00 84 1020.6
20260508164011 51 121 2.0 6.0 0.00 0.00 0.00 85 1020.6
20260508163510 51 162 0.0 4.0 0.00 0.00 0.00 87 1020.5
20260508163032 51 205 1.0 4.0 0.00 0.00 0.00 86 1020.4
20260508162513 51 137 0.0 5.0 0.00 0.00 0.00 87 1020.5
20260508162014 50 51 0.0 6.0 0.00 0.00 0.00 88 1020.7
20260508161528 50 148 2.0 6.0 0.00 0.00 0.00 87 1020.7
20260508161012 50 148 2.0 5.0 0.00 0.00 0.00 87 1020.7
20260508160515 50 178 1.0 6.0 0.00 0.00 0.00 88 1020.7
20260508160029 50 178 2.0 6.0 0.00 0.00 0.00 87 1020.7
20260508155514 50 178 2.0 6.0 0.00 0.00 0.00 89 1020.8
20260508155012 50 144 1.0 6.0 0.00 0.00 0.00 90 1020.7
20260508154527 50 221 2.0 6.0 0.00 0.00 0.00 89 1020.7
20260508154013 50 144 1.0 4.0 0.00 0.00 0.00 90 1020.7
20260508153517 50 215 1.0 3.0 0.00 0.00 0.00 89 1020.6
20260508153030 50 93 1.0 5.0 0.00 0.00 0.00 90 1020.7
20260508152513 50 144 1.0 5.0 0.00 0.00 0.00 90 1020.7
20260508152014 49 162 1.0 5.0 0.00 0.00 0.00 90 1020.6
20260508151530 49 169 1.0 6.0 0.00 0.00 0.00 90 1020.5
20260508151013 49 163 2.0 6.0 0.00 0.00 0.00 91 1020.4
20260508150514 49 133 2.0 5.0 0.00 0.00 0.00 90 1020.3
20260508150048 49 153 1.0 7.0 0.00 0.00 0.00 91 1020.3
20260508145509 49 137 3.0 7.0 0.00 0.00 0.00 92 1020.3
20260508145010 48 131 1.0 2.0 0.00 0.00 0.00 94 1020.2
20260508144528 48 120 0.0 2.0 0.00 0.00 0.00 95 1020.0
20260508144010 48 93 0.0 2.0 0.00 0.00 0.00 95 1019.9
20260508143511 48 93 0.0 2.0 0.00 0.00 0.00 95 1019.8
20260508143034 47 51 0.0 2.0 0.00 0.00 0.00 95 1019.7
20260508142510 47 93 0.0 2.0 0.00 0.00 0.00 95 1019.7
20260508142014 47 93 0.0 1.0 0.00 0.00 0.00 95 1019.6
20260508141530 46 137 0.0 1.0 0.00 0.00 0.00 95 1019.3
20260508141010 46 93 0.0 1.0 0.00 0.00 0.00 95 1019.2
20260508140516 46 93 0.0 1.0 0.00 0.00 0.00 95 1019.2
20260508140030 46 93 0.0 1.0 0.00 0.00 0.00 95 1019.1
20260508135510 46 93 0.0 1.0 0.00 0.00 0.00 95 1019.1
20260508135012 45 265 0.0 1.0 0.00 0.00 0.00 94 1019.0
20260508134530 45 309 0.0 1.0 0.00 0.00 0.00 94 1018.9
20260508134009 45 93 0.0 0.0 0.00 0.00 0.00 94 1018.8
20260508133513 45 178 0.0 0.0 0.00 0.00 0.00 94 1018.8
20260508133028 45 9 0.0 0.0 0.00 0.00 0.00 94 1018.8
20260508132510 45 178 0.0 0.0 0.00 0.00 0.00 94 1018.8
20260508132013 45 178 0.0 0.0 0.00 0.00 0.00 94 1018.7
20260508131510 45 178 0.0 1.0 0.00 0.00 0.00 94 1018.5
20260508131005 45 51 0.0 1.0 0.00 0.00 0.00 94 1018.5
20260508130502 45 93 0.0 1.0 0.00 0.00 0.00 94 1018.4
20260508130009 45 93 0.0 1.0 0.00 0.00 0.00 94 1018.6
20260508125503 45 119 0.0 1.0 0.00 0.00 0.00 94 1018.5
20260508125003 45 137 0.0 0.0 0.00 0.00 0.00 94 1018.4
20260508124511 45 51 0.0 1.0 0.00 0.00 0.00 94 1018.3
20260508124004 45 137 0.0 1.0 0.00 0.00 0.00 94 1018.2
20260508123503 45 137 0.0 1.0 0.00 0.00 0.00 94 1018.2
20260508123008 45 137 0.0 1.0 0.00 0.00 0.00 93 1018.2
20260508122503 45 51 0.0 0.0 0.00 0.00 0.00 93 1018.1
20260508122003 45 221 0.0 1.0 0.00 0.00 0.00 94 1018.0
20260508121510 45 51 0.0 1.0 0.00 0.00 0.00 94 1018.0
20260508121002 45 221 0.0 1.0 0.00 0.00 0.00 93 1018.0
20260508120502 45 93 0.0 1.0 0.00 0.00 0.00 93 1018.0
20260508120011 45 178 0.0 1.0 0.00 0.00 0.00 93 1018.0
20260508115506 45 178 0.0 1.0 0.00 0.00 0.00 93 1017.9
20260508115003 45 265 0.0 0.0 0.00 0.00 0.00 93 1017.9
20260508114510 45 93 0.0 0.0 0.00 0.00 0.00 93 1018.0
20260508114005 45 93 0.0 0.0 0.00 0.00 0.00 93 1018.0
20260508113503 45 9 0.0 0.0 0.00 0.00 0.00 93 1017.9
20260508113011 45 93 0.0 1.0 0.00 0.00 0.00 93 1017.9
20260508112505 45 93 0.0 1.0 0.00 0.00 0.00 93 1017.8
20260508112004 45 120 0.0 1.0 0.00 0.00 0.00 93 1017.8
20260508111511 45 178 0.0 1.0 0.00 0.00 0.00 93 1017.9
20260508111004 45 93 0.0 1.0 0.00 0.00 0.00 93 1017.9
20260508110502 45 51 0.0 1.0 0.00 0.00 0.00 93 1017.8
20260508110013 46 153 0.0 1.0 0.00 0.00 0.00 93 1017.9
20260508105502 46 221 0.0 1.0 0.00 0.00 0.00 93 1017.9
20260508105006 46 51 0.0 1.0 0.00 0.00 0.00 93 1017.8
20260508104507 46 178 0.0 1.0 0.00 0.00 0.00 93 1017.8
20260508104003 46 153 0.0 0.0 0.00 0.00 0.00 93 1017.8
20260508103503 46 93 0.0 0.0 0.00 0.00 0.00 93 1017.7
20260508103010 46 51 0.0 0.0 0.00 0.00 0.00 93 1017.7
20260508102504 46 93 0.0 0.0 0.00 0.00 0.00 93 1017.6
20260508102003 46 93 0.0 0.0 0.00 0.00 0.00 93 1017.6
20260508101508 46 178 0.0 0.0 0.00 0.00 0.00 93 1017.5
20260508101003 46 221 0.0 0.0 0.00 0.00 0.00 93 1017.5
20260508100503 46 93 0.0 0.0 0.00 0.00 0.00 93 1017.5
20260508100020 46 93 0.0 0.0 0.00 0.00 0.00 93 1017.5
20260508095503 46 137 0.0 1.0 0.00 0.00 0.00 93 1017.5
20260508095004 46 221 0.0 1.0 0.00 0.00 0.00 93 1017.4
20260508094512 46 212 0.0 1.0 0.00 0.00 0.00 93 1017.4
20260508094004 46 51 0.0 1.0 0.00 0.00 0.00 93 1017.4
20260508093502 46 93 0.0 1.0 0.00 0.00 0.00 93 1017.4
20260508093007 46 137 0.0 1.0 0.00 0.00 0.00 93 1017.4
20260508092506 46 153 0.0 2.0 0.00 0.00 0.00 93 1017.5